Tracking 31013 objects as of 11-Jul-2025
HD Live streaming from Space Station
objects crossing your sky now

CZ-4 DEB

Track CZ-4 DEB now!
10-day predictions


NORAD ID: 31131
Int'l Code: 2003-049D
Perigee: 686.8 km
Apogee: 860.8 km
Inclination: 98.9 °
Period: 100.2 minutes
Semi major axis: 7144 km
RCS: 0.0196 m2 (small)
Launch date: October 21, 2003
Source: People's Republic of China (PRC)
Launch site: Taiyaun Space Center, China (TSC)

Note: This is SATELLITE DEBRIS
Your satellite tracking list
Your tracking list is empty




NASA's NSSDC Master Catalog

Two Line Element Set (TLE):
1 31131U 03049D   25191.29444625  .00001153  00000-0  36881-3 0  9998
2 31131  98.8708 209.2206 0121784   7.1329  55.8829 14.37530803950563
Source of the keplerian elements: AFSPC